Change the Weather History Date:

Friday, November 22, 2013

  Actual Average Record
Temperature  
Mean Temperature 34 °F -  
Max Temperature 42 °F 45 °F 71 °F (2010)
Min Temperature 25 °F 26 °F 10 °F (1970)
Degree Days  
Heating Degree Days 32    
Moisture  
Dew Point 32 °F    
Average Humidity 86    
Maximum Humidity 93    
Minimum Humidity 71    
Precipitation  
Precipitation 0.04 in - - ()
Sea Level Pressure  
Sea Level Pressure 30.41 in    
Wind  
Wind Speed 12 mph (NNW)    
Max Wind Speed 21 mph    
Max Gust Speed 25 mph    
Visibility 8 miles    
Events Rain    
Averages and records for this station are not official NWS values.
T = Trace of Precipitation, MM = Missing Value Source: NWS Daily Summary

Daily Weather History Graph

Daily Weather History Graph

Search for Another Location

Airport or City:

Trip Planner

Search our weather history database for the weather conditions in past years. The results will help you decide how hot, cold, wet, or windy it might be!

Date:

Astronomy

Nov. 22, 2013 Rise Set
Actual Time 6:53 AM CST 4:31 PM CST
Civil Twilight 6:23 AM CST 5:02 PM CST
Nautical Twilight 5:49 AM CST 5:35 PM CST
Astronomical Twilight 5:16 AM CST 6:08 PM CST
Moon 9:04 PM CST (11/22) 10:36 AM CST (11/22)
Length of Visible Light 10h 38m
Length of Day
9h 38m
Waning Gibbous, 78% of the Moon is Illuminated
Nov 22
Waning Gibbous
Nov 25
Last Quarter
Dec 2
New
Dec 9
First Quarter
Dec 17
Full

Hourly Weather History & Observations

Time (CST) Temp. Windchill Dew Point Humidity Pressure Visibility Wind Dir Wind Speed Gust Speed Precip Events Conditions
12:15 AM 42.1 °F 37.1 °F 39.7 °F 91% 30.23 in 4.0 mi NNW 8.1 mph - N/A   Overcast
12:35 AM 42.1 °F 36.1 °F 39.6 °F 91% 30.23 in 4.0 mi NNW 10.4 mph - N/A   Overcast
12:55 AM 42.1 °F 36.1 °F 39.4 °F 90% 30.23 in 4.0 mi NNW 10.4 mph - N/A   Overcast
1:15 AM 42.1 °F 36.1 °F 39.6 °F 91% 30.23 in 4.0 mi NNW 10.4 mph - N/A   Overcast
1:35 AM 42.1 °F 35.2 °F 39.4 °F 90% 30.23 in 4.0 mi NNW 12.7 mph - N/A   Overcast
1:55 AM 41.9 °F 35.4 °F 39.4 °F 91% 30.25 in 4.0 mi NNW 11.5 mph - N/A Rain Light Rain
2:15 AM 41.4 °F 34.7 °F 39.2 °F 92% 30.25 in 3.0 mi NNW 11.5 mph - N/A   Drizzle
2:35 AM 41.4 °F 34.7 °F 39.4 °F 93% 30.25 in 3.0 mi NNW 11.5 mph - 0.01 in   Light Drizzle
2:55 AM 41.0 °F 33.5 °F 39.2 °F 93% 30.26 in 3.0 mi NNW 13.8 mph - 0.01 in   Light Drizzle
3:15 AM 41.0 °F 33.1 °F 38.8 °F 92% 30.27 in 4.0 mi North 15.0 mph - N/A   Overcast
3:35 AM 40.3 °F 33.4 °F 38.3 °F 93% 30.27 in 4.0 mi NNW 11.5 mph - N/A   Drizzle
3:55 AM 39.7 °F 31.5 °F 37.6 °F 92% 30.28 in 4.0 mi NNW 15.0 mph - N/A   Light Drizzle
4:15 AM 39.6 °F 31.3 °F 37.4 °F 92% 30.28 in 5.0 mi North 15.0 mph - N/A   Overcast
4:35 AM 39.6 °F 31.7 °F 37.0 °F 91% 30.29 in 5.0 mi North 13.8 mph - N/A   Overcast
4:55 AM 39.6 °F 32.5 °F 36.9 °F 90% 30.30 in 5.0 mi NNW 11.5 mph 18.4 mph N/A   Overcast
5:15 AM 39.6 °F 32.5 °F 37.0 °F 91% 30.30 in 5.0 mi North 11.5 mph - N/A   Light Drizzle
5:35 AM 39.4 °F 32.7 °F 37.2 °F 92% 30.30 in 5.0 mi NNW 10.4 mph - N/A   Overcast
5:55 AM 38.8 °F 30.4 °F 36.7 °F 92% 30.33 in 5.0 mi NNW 15.0 mph 21.9 mph N/A Rain Light Rain
6:15 AM 37.4 °F 28.2 °F 34.9 °F 91% 30.33 in 10.0 mi North 16.1 mph 20.7 mph N/A   Overcast
6:35 AM 37.0 °F 27.4 °F 34.2 °F 89% 30.35 in 10.0 mi NNW 17.3 mph - N/A   Overcast
6:55 AM 36.9 °F 28.7 °F 34.2 °F 90% 30.36 in 10.0 mi NNW 12.7 mph - N/A Rain Light Rain
7:15 AM 36.1 °F 26.2 °F 33.8 °F 91% 30.37 in 10.0 mi NNW 17.3 mph - N/A Rain Light Rain
7:35 AM 36.1 °F 26.5 °F 33.4 °F 90% 30.38 in 10.0 mi NNW 16.1 mph - N/A   Overcast
7:55 AM 35.8 °F 25.4 °F 32.9 °F 89% 30.40 in 10.0 mi NNW 18.4 mph 25.3 mph N/A Rain Light Rain
8:15 AM 35.6 °F 26.2 °F 32.2 °F 87% 30.40 in 10.0 mi North 15.0 mph 23.0 mph N/A   Overcast
8:35 AM 35.6 °F 24.8 °F 32.5 °F 89% 30.41 in 10.0 mi NNW 19.6 mph - N/A   Overcast
8:55 AM 35.6 °F 24.5 °F 32.0 °F 87% 30.42 in 10.0 mi North 20.7 mph - N/A   Overcast
9:15 AM 35.6 °F 25.5 °F 31.8 °F 86% 30.43 in 10.0 mi North 17.3 mph - N/A   Overcast
9:35 AM 35.6 °F 26.2 °F 31.8 °F 86% 30.44 in 10.0 mi North 15.0 mph 21.9 mph N/A   Overcast
9:55 AM 35.6 °F 25.2 °F 31.6 °F 85% 30.44 in 10.0 mi North 18.4 mph 23.0 mph N/A   Overcast
10:15 AM 35.4 °F 24.9 °F 31.1 °F 84% 30.44 in 10.0 mi North 18.4 mph - N/A   Overcast
10:35 AM 35.6 °F 25.2 °F 31.1 °F 84% 30.45 in 10.0 mi North 18.4 mph 23.0 mph N/A   Overcast
10:55 AM 36.0 °F 26.7 °F 31.1 °F 82% 30.44 in 10.0 mi North 15.0 mph - N/A   Overcast
11:15 AM - - - N/A% - - North - - N/A   Unknown
11:35 AM 37.4 °F 28.5 °F 31.3 °F 79% 30.43 in 10.0 mi North 15.0 mph 18.4 mph 0.03 in   Overcast
11:55 AM 36.5 °F 27.8 °F 30.4 °F 78% 30.43 in 10.0 mi North 13.8 mph - 0.03 in   Overcast
12:15 PM 36.7 °F 28.4 °F 30.6 °F 78% 30.43 in 10.0 mi North 12.7 mph - N/A   Overcast
12:35 PM 36.9 °F 29.1 °F 30.7 °F 79% 30.42 in 10.0 mi North 11.5 mph - N/A   Overcast
12:55 PM 36.9 °F 30.7 °F 30.6 °F 78% 30.43 in 10.0 mi North 8.1 mph - N/A   Overcast
1:15 PM 37.4 °F 28.5 °F 30.2 °F 75% 30.45 in 10.0 mi NNW 15.0 mph 18.4 mph N/A   Overcast
1:35 PM 38.3 °F 30.5 °F 30.6 °F 74% 30.46 in 10.0 mi North 12.7 mph - N/A   Overcast
1:55 PM 37.9 °F 28.9 °F 30.0 °F 73% 30.45 in 10.0 mi North 16.1 mph 19.6 mph N/A   Overcast
2:15 PM 39.6 °F 32.1 °F 30.9 °F 71% 30.46 in 10.0 mi North 12.7 mph - N/A   Overcast
2:35 PM 38.3 °F 29.3 °F 30.4 °F 73% 30.47 in 10.0 mi NNW 16.1 mph - N/A   Overcast
2:55 PM 38.3 °F 30.1 °F 29.8 °F 72% 30.48 in 10.0 mi NNW 13.8 mph - N/A   Overcast
3:15 PM 37.6 °F 29.1 °F 29.8 °F 74% 30.48 in 10.0 mi NNW 13.8 mph - N/A   Mostly Cloudy
3:35 PM 36.9 °F 29.1 °F 29.8 °F 76% 30.49 in 10.0 mi NNW 11.5 mph - N/A   Clear
3:55 PM 36.9 °F 28.7 °F 29.7 °F 75% 30.49 in 10.0 mi NNW 12.7 mph 17.3 mph N/A   Clear
4:15 PM 36.5 °F 27.8 °F 29.3 °F 75% 30.49 in 10.0 mi NNW 13.8 mph - N/A   Clear
4:35 PM 35.4 °F 28.4 °F 29.7 °F 80% 30.49 in 10.0 mi NNW 9.2 mph - N/A   Clear
4:55 PM 34.3 °F 27.0 °F 28.9 °F 81% 30.50 in 10.0 mi NNW 9.2 mph - N/A   Clear
5:15 PM 33.4 °F 25.9 °F 28.4 °F 82% 30.50 in 10.0 mi NNW 9.2 mph - N/A   Clear
5:35 PM 32.2 °F 25.0 °F 28.4 °F 86% 30.49 in 10.0 mi NW 8.1 mph - N/A   Clear
5:55 PM 32.0 °F 24.8 °F 28.4 °F 87% 30.49 in 10.0 mi NW 8.1 mph - N/A   Clear
6:15 PM 31.6 °F 25.1 °F 28.2 °F 87% 30.48 in 10.0 mi NW 6.9 mph - N/A   Clear
6:35 PM 31.1 °F 25.4 °F 27.9 °F 88% 30.48 in 10.0 mi WNW 5.8 mph - N/A   Clear
6:55 PM 30.9 °F 26.2 °F 27.5 °F 87% 30.48 in 10.0 mi WNW 4.6 mph - N/A   Clear
7:15 PM 30.7 °F 24.1 °F 27.5 °F 88% 30.49 in 10.0 mi WNW 6.9 mph - N/A   Clear
7:35 PM 30.4 °F 25.6 °F 27.3 °F 88% 30.49 in 10.0 mi West 4.6 mph - N/A   Clear
7:55 PM 29.5 °F 22.5 °F 26.6 °F 89% 30.49 in 10.0 mi West 6.9 mph - N/A   Clear
8:15 PM 28.9 °F 21.9 °F 26.2 °F 90% 30.49 in 10.0 mi West 6.9 mph - N/A   Clear
8:35 PM 29.3 °F 21.5 °F 26.6 °F 90% 30.49 in 10.0 mi West 8.1 mph - N/A   Clear
8:55 PM 29.7 °F 22.0 °F 26.2 °F 87% 30.49 in 10.0 mi WNW 8.1 mph - N/A   Clear
9:15 PM 29.3 °F 20.8 °F 25.7 °F 86% 30.50 in 10.0 mi WNW 9.2 mph - N/A   Clear
9:35 PM 29.3 °F 20.8 °F 25.0 °F 84% 30.50 in 10.0 mi WNW 9.2 mph - N/A   Clear
9:55 PM 28.9 °F 19.8 °F 24.8 °F 84% 30.50 in 10.0 mi WNW 10.4 mph - N/A   Clear
10:15 PM 28.4 °F 19.7 °F 24.8 °F 86% 30.50 in 10.0 mi WNW 9.2 mph - N/A   Clear
10:35 PM 28.0 °F 20.0 °F 24.6 °F 87% 30.50 in 10.0 mi West 8.1 mph - N/A   Clear
10:55 PM 27.3 °F 17.7 °F 24.4 °F 89% 30.50 in 10.0 mi West 10.4 mph - N/A   Clear
11:15 PM 26.2 °F 16.4 °F 23.4 °F 89% 30.49 in 10.0 mi West 10.4 mph - N/A   Clear
11:35 PM 25.7 °F 17.1 °F 23.0 °F 89% 30.49 in 10.0 mi West 8.1 mph - N/A   Clear
11:55 PM 25.5 °F 17.8 °F 22.3 °F 88% 30.48 in 10.0 mi West 6.9 mph - N/A   Clear